Beverly, MA

6:28 PM EST on January 24, 2017 (GMT -0500)
Dane Street Beach | | Change Station
Active Advisory: Gale Warning

Elev 20 ft 42.55 °N, 70.88 °W | Updated 24 minutes ago

Light Rain
Light Rain Mist
36.4 °F
Feels Like 30 °F
N
9.0
Wind Variable Wind from NE
Gusts 18.0 mph

Today
High -- | Low -- °F
--% Chance of Precip.
Yesterday
High -- | Low -- °F
Precip. -- in
Pressure 29.29 in
Visibility 3.0 miles
Clouds Overcast 600 ft
Windchill 30 °F
Dew Point 35 °F
Humidity 94%
Rainfall 0.00 in
Snow Depth Not available.
7:04 AM 4:47 PM
Waning Crescent, 9% visible
METAR KBVY 242253Z 02014G23KT 3SM -RA BR OVC006 02/02 A2929 RMK AO2 PK WND 01030/2206 UPB09E10 SLP916 P0003 T00220017
Pressure 29.29 in
Visibility 3.0 miles
Clouds Overcast 600 ft
Windchill 30 °F
Dew Point 35 °F
Humidity 94%
Rainfall 0.00 in
Snow Depth Not available.
7:04 AM 4:47 PM
Waning Crescent, 9% visible
METAR KBVY 242253Z 02014G23KT 3SM -RA BR OVC006 02/02 A2929 RMK AO2 PK WND 01030/2206 UPB09E10 SLP916 P0003 T00220017

Get Your Daily Forecast Email!

Thanks for signing up!

Be on the lookout for a verification email in your inbox.

You'll start receiving the daily forecast at 8 AM.

×

10-Day Weather Forecast

Almanac

Astronomy

Jan. 24, 2017 Rise Set
Actual Time
Civil Twilight
Nautical Twilight
Astronomical Twilight
Moon
Length of Visible Light
Length of Day
Tomorrow will be .
, % of the Moon is Illuminated

Today's Extremes

State Highs State Lows

Community

WunderPhotos

Upload Photos

1,962,540 photos uploaded!

WunderBlog® & News

Nearby

Air Quality

  Air Quality AQ Index Pollutant
Not available.

Snow Depth

Station Depth Elevation

Earthquake Activity

City Distance Mag. Time & Date
Minimum magnitude displayed is 2.5.

Coastal Water Temperatures

Place Temperature

Stations

Nearby Weather Stations

Station Location Temp. Windchill Dew Point Humidity Wind Precip. Elev Updated Type
                   

Watches & Warnings

Gale Warning
Issued: 3:50 PM EST Jan. 24, 2017 – National Weather Service

... Gale Warning in effect until 10 PM EST this evening...

The National Weather Service in Taunton has issued a Gale
Warning... which is in effect until 10 PM EST this evening.

* Winds and seas... northeast winds 15 to 25 kt with gusts up to
35 kt. Seas 13 to 18 feet.

Precautionary/preparedness actions...

A Gale Warning means winds of 34 to 47 knots are imminent or
occurring. Operating a vessel in gale conditions requires
experience and properly equipped vessels. It is highly
recommended that mariners without the proper experience seek safe
Harbor prior to the onset of gale conditions.